Weather History for Eagle, CO

Change the Weather History Date:

Thursday, October 25, 2012

  Actual Average Record
Temperature  
Mean Temperature 34 °F -  
Max Temperature 41 °F 60 °F 73 °F (1952)
Min Temperature 26 °F 22 °F 2 °F (1975)
Degree Days  
Heating Degree Days 32    
Moisture  
Dew Point 25 °F    
Average Humidity 80    
Maximum Humidity 93    
Minimum Humidity 39    
Precipitation  
Precipitation 0.00 in - - ()
Sea Level Pressure  
Sea Level Pressure 30.15 in    
Wind  
Wind Speed 5 mph (WSW)    
Max Wind Speed 22 mph    
Max Gust Speed 30 mph    
Visibility 10 miles    
Events      
Averages and records for this station are not official NWS values.
T = Trace of Precipitation, MM = Missing Value Source: NWS Daily Summary

Daily Weather History Graph

Daily Weather History Graph

Search for Another Location

Airport:

Trip Planner

Search our weather history database for the weather conditions in past years. The results will help you decide how hot, cold, wet, or windy it might be!

Date:

Astronomy

Oct. 25, 2012 Rise Set
Actual Time 7:28 AM MDT 6:13 PM MDT
Civil Twilight 7:01 AM MDT 6:41 PM MDT
Nautical Twilight 6:29 AM MDT 7:12 PM MDT
Astronomical Twilight 5:58 AM MDT 7:44 PM MDT
Moon 4:00 PM MDT (10/25) 3:29 AM MDT (10/25)
Length of Visible Light 11h 39m
Length of Day
10h 44m
Waxing Gibbous, 85% of the Moon is Illuminated
Oct 25
Waxing Gibbous
Oct 29
Full
Nov 6
Last Quarter
Nov 13
New
Nov 20
First Quarter

Hourly Weather History & Observations

Time (MDT) Temp. Windchill Dew Point Humidity Pressure Visibility Wind Dir Wind Speed Gust Speed Precip Events Conditions
6:50 AM 28.4 °F - 26.6 °F 93% 30.11 in 10.0 mi Calm Calm - N/A   Mostly Cloudy
7:47 AM 26.6 °F - 24.8 °F 93% 30.12 in 10.0 mi Calm Calm - N/A   Partly Cloudy
8:48 AM 26.6 °F - 24.8 °F 93% 30.13 in 10.0 mi Calm Calm - N/A   Scattered Clouds
9:59 AM 30.2 °F - 26.6 °F 86% 30.13 in 10.0 mi Calm Calm - N/A   Mostly Cloudy
11:55 AM 35.6 °F - 24.8 °F 65% 30.11 in 10.0 mi Calm Calm - N/A   Mostly Cloudy
12:55 PM 37.4 °F 34.9 °F 21.2 °F 52% 30.07 in 10.0 mi SW 3.5 mph - N/A   Mostly Cloudy
1:47 PM 39.2 °F 29.0 °F 15.8 °F 39% 30.05 in 10.0 mi SW 21.9 mph 29.9 mph N/A   Mostly Cloudy
3:47 PM 41.0 °F 32.5 °F 17.6 °F 39% 30.05 in 10.0 mi West 17.3 mph 20.7 mph N/A   Mostly Cloudy
4:56 PM 35.6 °F 27.5 °F 26.6 °F 70% 30.09 in 10.0 mi West 11.5 mph - N/A   Mostly Cloudy
5:59 PM 30.2 °F 24.3 °F 28.4 °F 93% 30.13 in 10.0 mi WSW 5.8 mph - N/A   Mostly Cloudy
6:45 PM 30.2 °F 23.4 °F 26.6 °F 86% 30.14 in 10.0 mi SW 6.9 mph - N/A   Mostly Cloudy
7:15 PM 32.0 °F 22.5 °F 26.6 °F 80% 30.14 in 10.0 mi SSW 12.7 mph - N/A   Partly Cloudy
7:35 PM 30.2 °F 21.9 °F 26.6 °F 86% 30.16 in 10.0 mi SW 9.2 mph - N/A   Scattered Clouds
7:55 PM 30.2 °F 23.4 °F 26.6 °F 86% 30.17 in 10.0 mi SW 6.9 mph - N/A   Mostly Cloudy
8:15 PM 30.2 °F 25.4 °F 26.6 °F 86% 30.17 in 8.0 mi SSW 4.6 mph - N/A   Scattered Clouds
8:35 PM 30.2 °F 22.6 °F 26.6 °F 86% 30.17 in 10.0 mi WSW 8.1 mph - N/A   Partly Cloudy
8:55 PM 30.2 °F 24.3 °F 26.6 °F 86% 30.18 in 10.0 mi West 5.8 mph - N/A   Clear
9:15 PM 28.4 °F 21.2 °F 26.6 °F 93% 30.19 in 10.0 mi WNW 6.9 mph - N/A   Partly Cloudy
9:35 PM 30.2 °F 24.3 °F 26.6 °F 86% 30.20 in 10.0 mi SW 5.8 mph - N/A   Clear
9:55 PM 28.4 °F 23.3 °F 26.6 °F 93% 30.21 in 10.0 mi WSW 4.6 mph - N/A   Clear
10:15 PM 28.4 °F 22.2 °F 24.8 °F 86% 30.21 in 10.0 mi SW 5.8 mph - N/A   Partly Cloudy
10:35 PM 28.4 °F 23.3 °F 24.8 °F 86% 30.22 in 10.0 mi West 4.6 mph - N/A   Clear
10:55 PM 28.4 °F 23.3 °F 24.8 °F 86% 30.23 in 10.0 mi West 4.6 mph - N/A   Mostly Cloudy
11:15 PM 28.4 °F 24.6 °F 23.0 °F 80% 30.23 in 10.0 mi WSW 3.5 mph - N/A   Scattered Clouds
11:35 PM 28.4 °F 22.2 °F 21.2 °F 74% 30.24 in 10.0 mi SW 5.8 mph - N/A   Mostly Cloudy